DLH29P EDDL-EPGD

Flight info

Callsign DLH29P
Flight time N/A
Altitude 37000
Route MEVEL1Z MEVEL L179 MISRI Z851 ROBEG DCT AMALI DCT MURIZ DCT BODLA DCT UNVOX L730 KOSEX
Aircraft A320/M-SDE3FGHIRWY/LB1

Departure

Time 2026-05-07 20:26
Airport Düsseldorf Airport (EDDL)

Arrival

Time N/A
Airport Gdańsk Lech Wałęsa Airport (EPGD)
Time Latitude Longitude Altitude Speed Heading
2026-05-07 19:54 51.27611 6.76286 114 ft 0 kts
2026-05-07 20:17 51.27603 6.76284 118 ft 4 kts
2026-05-07 20:17 51.27576 6.76280 115 ft 4 kts
2026-05-07 20:17 51.27550 6.76285 116 ft 4 kts 334°
2026-05-07 20:18 51.27537 6.76302 116 ft 3 kts 252°
2026-05-07 20:18 51.27538 6.76305 116 ft 0 kts 248°
2026-05-07 20:21 51.27537 6.76304 116 ft 1 kts 248°
2026-05-07 20:21 51.27532 6.76282 118 ft 3 kts 248°
2026-05-07 20:21 51.27522 6.76241 117 ft 4 kts 249°
2026-05-07 20:21 51.27513 6.76175 118 ft 7 kts 269°
2026-05-07 20:22 51.27536 6.76113 113 ft 6 kts 323°
2026-05-07 20:22 51.27588 6.76069 117 ft 12 kts 334°
2026-05-07 20:22 51.27664 6.76038 116 ft 11 kts 358°
2026-05-07 20:22 51.27739 6.76041 117 ft 11 kts
2026-05-07 20:23 51.27818 6.76044 117 ft 12 kts
2026-05-07 20:23 51.27901 6.76046 118 ft 13 kts
2026-05-07 20:23 51.27993 6.76047 116 ft 14 kts 360°
2026-05-07 20:23 51.28068 6.76043 117 ft 10 kts 351°
2026-05-07 20:24 51.28134 6.76047 115 ft 9 kts 30°
2026-05-07 20:24 51.28175 6.76091 116 ft 6 kts 13°
2026-05-07 20:24 51.28214 6.76069 115 ft 10 kts 336°
2026-05-07 20:24 51.28285 6.76004 114 ft 9 kts 340°
2026-05-07 20:25 51.28347 6.76028 117 ft 13 kts 33°
2026-05-07 20:25 51.28483 6.76291 116 ft 63 kts 52°
2026-05-07 20:25 51.28888 6.77137 116 ft 126 kts 53°
2026-05-07 20:25 51.29506 6.78460 256 ft 161 kts 54°
2026-05-07 20:26 51.30143 6.79859 1046 ft 153 kts 53°
2026-05-07 20:26 51.30800 6.81235 1638 ft 164 kts 52°
2026-05-07 20:26 51.31542 6.82739 2052 ft 179 kts 52°
2026-05-07 20:26 51.32345 6.84360 2508 ft 194 kts 52°
2026-05-07 20:27 51.33202 6.86156 2843 ft 212 kts 53°
2026-05-07 20:27 51.34127 6.88167 3191 ft 237 kts 53°
2026-05-07 20:27 51.35306 6.90139 3758 ft 253 kts 31°
2026-05-07 20:27 51.36991 6.91037 4542 ft 261 kts
2026-05-07 20:28 51.38779 6.91492 5561 ft 260 kts
2026-05-07 20:28 51.40580 6.91970 6426 ft 266 kts
2026-05-07 20:28 51.42413 6.92454 7306 ft 268 kts
2026-05-07 20:28 51.44271 6.92918 8123 ft 273 kts
2026-05-07 20:29 51.46173 6.93386 8924 ft 279 kts
2026-05-07 20:29 51.48108 6.93893 9724 ft 285 kts
2026-05-07 20:29 51.49418 6.94139 10212 ft 288 kts
2026-05-07 20:29 51.51459 6.93907 10661 ft 304 kts 349°
2026-05-07 20:30 51.53627 6.93318 10890 ft 328 kts 349°
2026-05-07 20:30 51.55954 6.92652 11069 ft 351 kts 348°
2026-05-07 20:30 51.58434 6.91932 11204 ft 373 kts 348°
2026-05-07 20:30 51.61039 6.91184 11603 ft 385 kts 349°
2026-05-07 20:31 51.63694 6.90440 12214 ft 390 kts 349°
2026-05-07 20:31 51.66411 6.90162 12830 ft 395 kts
2026-05-07 20:31 51.69125 6.91054 13398 ft 402 kts 19°
2026-05-07 20:31 51.71586 6.93236 13974 ft 408 kts 38°
2026-05-07 20:32 51.73519 6.96601 14476 ft 413 kts 57°
2026-05-07 20:32 51.74759 7.00788 15011 ft 416 kts 69°
2026-05-07 20:32 51.75819 7.05152 15549 ft 419 kts 69°
2026-05-07 20:32 51.76883 7.09543 16071 ft 422 kts 69°
2026-05-07 20:33 51.77959 7.13980 16580 ft 425 kts 69°
2026-05-07 20:33 51.79028 7.18377 17082 ft 428 kts 68°
2026-05-07 20:33 51.80122 7.22873 17587 ft 432 kts 68°
2026-05-07 20:33 51.81224 7.27401 18072 ft 435 kts 69°
2026-05-07 20:34 51.82348 7.32029 18547 ft 438 kts 68°
2026-05-07 20:34 51.83448 7.36559 18972 ft 440 kts 68°
2026-05-07 20:34 51.84571 7.41186 19389 ft 443 kts 68°
2026-05-07 20:34 51.85698 7.45841 19799 ft 446 kts 69°
2026-05-07 20:35 51.86829 7.50526 20203 ft 448 kts 69°
2026-05-07 20:35 51.87965 7.55245 20593 ft 451 kts 69°
2026-05-07 20:35 51.89102 7.59985 20972 ft 453 kts 69°
2026-05-07 20:35 51.90242 7.64765 21343 ft 456 kts 69°
2026-05-07 20:36 51.91381 7.69564 21707 ft 458 kts 69°
2026-05-07 20:36 51.92528 7.74403 22077 ft 461 kts 69°
2026-05-07 20:36 51.93679 7.79269 22439 ft 464 kts 69°
2026-05-07 20:36 51.94837 7.84155 22783 ft 466 kts 69°
2026-05-07 20:37 51.96003 7.89073 23140 ft 468 kts 69°
2026-05-07 20:37 51.97168 7.94004 23474 ft 470 kts 69°
2026-05-07 20:37 51.98336 7.98963 23778 ft 472 kts 69°
2026-05-07 20:37 51.99507 8.03948 24063 ft 474 kts 69°
2026-05-07 20:38 52.00680 8.08958 24352 ft 476 kts 69°
2026-05-07 20:38 52.01855 8.13991 24630 ft 477 kts 69°
2026-05-07 20:38 52.03014 8.18973 24901 ft 479 kts 69°
2026-05-07 20:38 52.04188 8.24029 25279 ft 478 kts 69°
2026-05-07 20:39 52.05353 8.29062 25683 ft 476 kts 69°
2026-05-07 20:39 52.06516 8.34097 26069 ft 475 kts 69°
2026-05-07 20:39 52.07679 8.39128 26470 ft 474 kts 69°
2026-05-07 20:39 52.08833 8.44131 26907 ft 472 kts 69°
2026-05-07 20:40 52.09982 8.49128 27323 ft 471 kts 69°
2026-05-07 20:40 52.11124 8.54113 27749 ft 470 kts 69°
2026-05-07 20:40 52.12261 8.59084 28165 ft 469 kts 69°
2026-05-07 20:40 52.13394 8.64049 28589 ft 467 kts 69°
2026-05-07 20:41 52.14521 8.69006 29017 ft 466 kts 69°
2026-05-07 20:41 52.15645 8.73954 29442 ft 465 kts 69°
2026-05-07 20:41 52.16764 8.78888 29868 ft 464 kts 69°
2026-05-07 20:41 52.17881 8.83818 30277 ft 463 kts 69°
2026-05-07 20:42 52.18994 8.88741 30633 ft 463 kts 69°
2026-05-07 20:42 52.20100 8.93656 31004 ft 461 kts 69°
2026-05-07 20:42 52.21199 8.98557 31391 ft 459 kts 70°
2026-05-07 20:42 52.22293 9.03442 31748 ft 458 kts 70°
2026-05-07 20:43 52.23385 9.08323 32102 ft 457 kts 70°
2026-05-07 20:43 52.24470 9.13185 32446 ft 457 kts 70°
2026-05-07 20:43 52.25553 9.18056 32796 ft 456 kts 70°
2026-05-07 20:43 52.26630 9.22900 33138 ft 455 kts 70°
2026-05-07 20:44 52.27699 9.27714 33475 ft 455 kts 70°
2026-05-07 20:44 52.28770 9.32559 33814 ft 454 kts 70°
2026-05-07 20:44 52.29838 9.37415 34150 ft 453 kts 70°
2026-05-07 20:44 52.30898 9.42261 34429 ft 453 kts 70°
2026-05-07 20:45 52.31957 9.47113 34682 ft 454 kts 70°
2026-05-07 20:45 52.33017 9.51968 34909 ft 454 kts 70°
2026-05-07 20:45 52.34081 9.56838 35132 ft 455 kts 70°
2026-05-07 20:45 52.35144 9.61712 35357 ft 456 kts 70°
2026-05-07 20:46 52.36208 9.66599 35572 ft 456 kts 70°
2026-05-07 20:46 52.37271 9.71494 35789 ft 457 kts 70°
2026-05-07 20:46 52.38334 9.76400 36003 ft 457 kts 70°
2026-05-07 20:46 52.39391 9.81297 36210 ft 458 kts 70°
2026-05-07 20:47 52.40449 9.86219 36411 ft 458 kts 70°
2026-05-07 20:47 52.41503 9.91144 36608 ft 459 kts 70°
2026-05-07 20:47 52.42556 9.96078 36799 ft 459 kts 71°
2026-05-07 20:47 52.43607 10.01020 36989 ft 459 kts 71°
2026-05-07 20:48 52.44660 10.05974 37116 ft 462 kts 71°
2026-05-07 20:48 52.46786 10.15985 37135 ft 468 kts 71°
2026-05-07 20:49 52.48925 10.26093 37131 ft 469 kts 71°
2026-05-07 20:49 52.51058 10.36227 37132 ft 469 kts 71°
2026-05-07 20:50 52.53161 10.46295 37130 ft 469 kts 71°
2026-05-07 20:50 52.55270 10.56444 37133 ft 469 kts 71°
2026-05-07 20:51 52.57372 10.66599 37130 ft 469 kts 71°
2026-05-07 20:51 52.59469 10.76774 37135 ft 470 kts 71°
2026-05-07 20:52 52.61560 10.86963 37132 ft 470 kts 71°
2026-05-07 20:52 52.63638 10.97156 37133 ft 470 kts 71°
2026-05-07 20:53 52.65702 11.07362 37132 ft 470 kts 71°
2026-05-07 20:53 52.67762 11.17568 37130 ft 470 kts 71°
2026-05-07 20:54 52.69820 11.27796 37129 ft 470 kts 71°
2026-05-07 20:54 52.71873 11.38034 37142 ft 470 kts 72°